KF5JED-13 Weather Reports


Display with metric or nautical units.
time (UTC)temp
F
wind
direction
speed
MPH
gust
MPH
rain 1hr
in
rain 24hr
in
rain mn
in
humidity
%
barometer
mb
20260906035441 83 159 10.0 12.0 0.00 0.00 0.00 48 1017.2
20260906034937 84 156 8.0 10.0 0.00 0.00 0.00 47 1017.2
20260906034431 84 159 9.0 9.0 0.00 0.00 0.00 47 1017.2
20260906033926 84 151 8.0 11.0 0.00 0.00 0.00 46 1017.1
20260906033421 85 155 6.0 11.0 0.00 0.00 0.00 45 1017.2
20260906032917 85 146 9.0 14.0 0.00 0.00 0.00 45 1017.1
20260906032413 85 146 6.0 11.0 0.00 0.00 0.00 45 1017.2
20260906031907 85 159 7.0 9.0 0.00 0.00 0.00 45 1016.8
20260906031402 86 154 7.0 13.0 0.00 0.00 0.00 44 1016.7
20260906030852 86 149 9.0 14.0 0.00 0.00 0.00 44 1016.6
20260906030346 85 154 9.0 12.0 0.00 0.00 0.00 46 1016.6
20260906025841 85 183 8.0 12.0 0.00 0.00 0.00 46 1016.5
20260906025335 85 175 6.0 11.0 0.00 0.00 0.00 46 1016.2
20260906024833 86 155 13.0 14.0 0.00 0.00 0.00 44 1016.6
20260906024328 87 173 9.0 18.0 0.00 0.00 0.00 42 1016.3
20260906023823 85 151 8.0 11.0 0.00 0.00 0.00 45 1016.5
20260906023319 84 219 9.0 11.0 0.00 0.00 0.00 47 1016.6
20260906022814 84 184 4.0 10.0 0.00 0.00 0.00 48 1016.5
20260906022309 85 213 7.0 11.0 0.00 0.00 0.00 45 1016.5
20260906021804 86 138 6.0 8.0 0.00 0.00 0.00 44 1016.2
20260906021258 86 161 5.0 8.0 0.00 0.00 0.00 44 1016.2
20260906020752 87 147 7.0 9.0 0.00 0.00 0.00 43 1016.2
20260906020247 87 151 4.0 7.0 0.00 0.00 0.00 43 1016.1
20260906015747 87 141 6.0 9.0 0.00 0.00 0.00 43 1016.0
20260906015245 87 140 7.0 10.0 0.00 0.00 0.00 44 1015.7
20260906014740 87 148 4.0 10.0 0.00 0.00 0.00 43 1015.6
20260906014236 87 144 4.0 11.0 0.00 0.00 0.00 43 1015.5
20260906013732 87 128 7.0 9.0 0.00 0.00 0.00 43 1015.5
20260906013231 88 140 8.0 11.0 0.00 0.00 0.00 43 1015.1
20260906012727 88 131 6.0 8.0 0.00 0.00 0.00 43 1015.2
20260906012222 88 114 4.0 12.0 0.00 0.00 0.00 43 1015.2
20260906011717 88 161 7.0 10.0 0.00 0.00 0.00 43 1015.0
20260906011212 89 114 8.0 11.0 0.00 0.00 0.00 42 1015.0
20260906010707 89 132 7.0 12.0 0.00 0.00 0.00 42 1015.0
20260906010203 89 140 4.0 7.0 0.00 0.00 0.00 42 1015.0
20260906005702 89 106 4.0 10.0 0.00 0.00 0.00 42 1015.1
20260906005157 89 134 6.0 10.0 0.00 0.00 0.00 42 1015.1
20260906004656 90 153 6.0 10.0 0.00 0.00 0.00 41 1014.9
20260906004151 90 146 6.0 10.0 0.00 0.00 0.00 41 1015.0
20260906003646 91 148 8.0 9.0 0.00 0.00 0.00 41 1015.0
20260906003142 91 138 8.0 11.0 0.00 0.00 0.00 40 1015.1
20260906002637 91 142 5.0 11.0 0.00 0.00 0.00 40 1014.8
20260906002131 91 146 4.0 12.0 0.00 0.00 0.00 39 1014.7
20260906001627 91 147 5.0 13.0 0.00 0.00 0.00 39 1014.9
20260906001126 92 139 7.0 13.0 0.00 0.00 0.00 38 1014.7
20260906000622 92 129 7.0 13.0 0.00 0.00 0.00 38 1014.9
20260906000118 92 153 9.0 17.0 0.00 0.00 0.00 38 1014.6
20260905235616 93 152 8.0 17.0 0.00 0.00 0.00 38 1014.3
20260905235111 93 142 8.0 16.0 0.00 0.00 0.00 37 1014.5
20260905234607 93 146 11.0 17.0 0.00 0.00 0.00 37 1014.3
20260905234101 93 147 11.0 16.0 0.00 0.00 0.00 37 1014.3
20260905233556 94 138 14.0 21.0 0.00 0.00 0.00 37 1014.1
20260905233051 95 145 11.0 16.0 0.00 0.00 0.00 36 1014.1
20260905232546 96 138 6.0 11.0 0.00 0.00 0.00 35 1014.1
20260905232042 96 143 8.0 15.0 0.00 0.00 0.00 33 1014.1
20260905231537 96 134 10.0 14.0 0.00 0.00 0.00 34 1013.9
20260905231033 97 154 10.0 11.0 0.00 0.00 0.00 32 1014.0
20260905230532 97 155 6.0 11.0 0.00 0.00 0.00 33 1013.9
20260905230030 98 168 8.0 11.0 0.00 0.00 0.00 32 1014.1
20260905225525 98 165 11.0 14.0 0.00 0.00 0.00 31 1013.9
20260905225020 97 168 7.0 12.0 0.00 0.00 0.00 33 1014.0
20260905224515 97 169 12.0 14.0 0.00 0.00 0.00 32 1014.0
20260905224015 96 153 5.0 11.0 0.00 0.00 0.00 34 1014.1
20260905223512 96 163 6.0 13.0 0.00 0.00 0.00 34 1014.0
20260905223007 97 138 7.0 10.0 0.00 0.00 0.00 34 1014.2
20260905222502 96 206 9.0 12.0 0.00 0.00 0.00 34 1014.2
20260905221957 96 161 9.0 13.0 0.00 0.00 0.00 33 1013.9
20260905221454 97 139 10.0 16.0 0.00 0.00 0.00 32 1014.1
20260905220950 96 162 9.0 14.0 0.00 0.00 0.00 33 1014.1
20260905220446 97 161 12.0 16.0 0.00 0.00 0.00 33 1014.1
20260905215944 97 166 10.0 15.0 0.00 0.00 0.00 33 1014.2
20260905215440 98 171 6.0 13.0 0.00 0.00 0.00 33 1014.5
20260905214937 98 156 10.0 17.0 0.00 0.00 0.00 33 1014.3
20260905214432 98 161 9.0 18.0 0.00 0.00 0.00 33 1014.3
20260905213931 96 161 7.0 14.0 0.00 0.00 0.00 34 1014.3
20260905213428 97 154 7.0 14.0 0.00 0.00 0.00 33 1014.5
20260905212923 100 182 8.0 18.0 0.00 0.00 0.00 32 1014.5
20260905212418 97 159 5.0 7.0 0.00 0.00 0.00 35 1014.7
20260905211917 97 143 6.0 10.0 0.00 0.00 0.00 36 1014.7
20260905211413 97 147 10.0 13.0 0.00 0.00 0.00 35 1014.8
20260905210909 95 169 6.0 9.0 0.00 0.00 0.00 36 1015.1
20260905210403 96 142 10.0 14.0 0.00 0.00 0.00 35 1014.9
20260905205903 97 164 9.0 13.0 0.00 0.00 0.00 35 1015.0
20260905205357 96 192 6.0 9.0 0.00 0.00 0.00 33 1015.1
20260905204856 97 149 8.0 14.0 0.00 0.00 0.00 34 1015.2
20260905204352 97 180 4.0 13.0 0.00 0.00 0.00 33 1015.5
20260905203845 97 136 6.0 12.0 0.00 0.00 0.00 34 1015.5
20260905203341 97 137 4.0 6.0 0.00 0.00 0.00 36 1015.2
20260905202837 97 164 12.0 17.0 0.00 0.00 0.00 34 1015.7
20260905202331 97 172 2.0 10.0 0.00 0.00 0.00 36 1015.5
20260905201827 96 158 11.0 15.0 0.00 0.00 0.00 35 1015.7
20260905201322 97 187 11.0 16.0 0.00 0.00 0.00 33 1015.7
20260905200817 96 192 4.0 13.0 0.00 0.00 0.00 35 1015.8
20260905200313 98 197 17.0 17.0 0.00 0.00 0.00 33 1015.9
20260905195810 96 167 7.0 9.0 0.00 0.00 0.00 36 1015.9
20260905195307 96 160 7.0 9.0 0.00 0.00 0.00 34 1016.0
20260905194802 96 157 5.0 12.0 0.00 0.00 0.00 36 1015.9
20260905194300 96 155 12.0 17.0 0.00 0.00 0.00 35 1016.1
20260905193755 95 177 2.0 7.0 0.00 0.00 0.00 37 1016.0
20260905193249 96 180 8.0 16.0 0.00 0.00 0.00 36 1016.1
20260905192745 95 152 8.0 13.0 0.00 0.00 0.00 36 1016.1
20260905192242 96 136 8.0 17.0 0.00 0.00 0.00 35 1016.3
20260905191740 96 160 8.0 14.0 0.00 0.00 0.00 38 1016.3
20260905191239 95 161 8.0 15.0 0.00 0.00 0.00 38 1016.5
20260905190738 95 148 11.0 13.0 0.00 0.00 0.00 37 1016.5
20260905190237 96 163 14.0 20.0 0.00 0.00 0.00 37 1016.5
20260905185736 95 168 8.0 15.0 0.00 0.00 0.00 37 1016.5
20260905185230 95 174 6.0 13.0 0.00 0.00 0.00 37 1016.8
20260905184725 95 179 12.0 16.0 0.00 0.00 0.00 38 1016.6
20260905184224 95 147 11.0 14.0 0.00 0.00 0.00 40 1016.7
20260905183718 96 200 12.0 17.0 0.00 0.00 0.00 37 1016.8
20260905183214 95 202 11.0 17.0 0.00 0.00 0.00 37 1016.8
20260905182712 93 156 9.0 15.0 0.00 0.00 0.00 40 1016.8
20260905182207 94 163 11.0 14.0 0.00 0.00 0.00 39 1017.0
20260905181702 94 171 9.0 13.0 0.00 0.00 0.00 40 1016.8
20260905181201 93 174 8.0 13.0 0.00 0.00 0.00 41 1017.2
20260905180655 93 165 9.0 15.0 0.00 0.00 0.00 41 1017.0
20260905180151 92 161 9.0 16.0 0.00 0.00 0.00 42 1017.1
20260905175649 92 172 9.0 16.0 0.00 0.00 0.00 42 1017.2
20260905175145 92 164 13.0 14.0 0.00 0.00 0.00 42 1017.5
20260905174641 92 201 9.0 18.0 0.00 0.00 0.00 43 1017.3
20260905174136 92 199 11.0 13.0 0.00 0.00 0.00 44 1017.3
20260905173632 91 204 6.0 18.0 0.00 0.00 0.00 45 1017.3
20260905173128 91 159 11.0 17.0 0.00 0.00 0.00 44 1017.6
20260905172626 91 180 11.0 15.0 0.00 0.00 0.00 44 1017.5
20260905172121 91 173 11.0 18.0 0.00 0.00 0.00 45 1017.5
20260905171618 91 183 11.0 16.0 0.00 0.00 0.00 45 1017.5
20260905171113 90 218 15.0 18.0 0.00 0.00 0.00 46 1017.6
20260905170605 90 172 11.0 16.0 0.00 0.00 0.00 46 1017.6
20260905170059 90 150 13.0 16.0 0.00 0.00 0.00 46 1017.3
20260905165554 89 199 11.0 14.0 0.00 0.00 0.00 47 1017.7
20260905165043 89 181 12.0 16.0 0.00 0.00 0.00 48 1017.7
20260905164538 88 173 11.0 14.0 0.00 0.00 0.00 49 1017.6
20260905164033 89 166 10.0 14.0 0.00 0.00 0.00 49 1017.5
20260905163529 87 157 11.0 14.0 0.00 0.00 0.00 51 1017.6
20260905163025 87 157 8.0 17.0 0.00 0.00 0.00 50 1017.6
20260905162520 87 194 9.0 18.0 0.00 0.00 0.00 50 1017.3
20260905162014 86 191 13.0 14.0 0.00 0.00 0.00 52 1017.2
20260905161509 86 191 11.0 17.0 0.00 0.00 0.00 52 1017.3
20260905161006 85 171 7.0 15.0 0.00 0.00 0.00 55 1017.6
20260905160459 85 180 9.0 15.0 0.00 0.00 0.00 55 1017.5
20260905155954 85 175 9.0 15.0 0.00 0.00 0.00 56 1017.3
20260905155449 84 196 5.0 16.0 0.00 0.00 0.00 58 1017.6
20260905154947 83 194 11.0 15.0 0.00 0.00 0.00 58 1017.6
20260905154443 83 166 11.0 14.0 0.00 0.00 0.00 59 1017.3
20260905153938 82 193 8.0 14.0 0.00 0.00 0.00 61 1017.7
20260905153435 83 200 13.0 17.0 0.00 0.00 0.00 59 1017.7
20260905152933 82 168 9.0 18.0 0.00 0.00 0.00 61 1017.6
20260905152433 81 206 11.0 17.0 0.00 0.00 0.00 63 1017.5
20260905151928 80 203 10.0 15.0 0.00 0.00 0.00 64 1017.6
20260905151424 80 182 9.0 14.0 0.00 0.00 0.00 63 1017.5
20260905150919 79 195 12.0 15.0 0.00 0.00 0.00 64 1017.7
20260905150418 79 182 9.0 14.0 0.00 0.00 0.00 65 1017.7
20260905145915 79 163 11.0 13.0 0.00 0.00 0.00 65 1017.6
20260905145410 79 173 9.0 13.0 0.00 0.00 0.00 66 1017.7
20260905144909 79 195 12.0 15.0 0.00 0.00 0.00 66 1017.6
20260905144405 78 202 10.0 13.0 0.00 0.00 0.00 66 1017.7
20260905143903 78 160 8.0 12.0 0.00 0.00 0.00 67 1017.6
20260905143357 78 164 10.0 13.0 0.00 0.00 0.00 68 1017.7
20260905142852 77 161 10.0 13.0 0.00 0.00 0.00 68 1017.6
20260905142350 77 175 11.0 12.0 0.00 0.00 0.00 68 1017.7
20260905141847 76 149 8.0 11.0 0.00 0.00 0.00 69 1017.7
20260905141342 76 146 8.0 12.0 0.00 0.00 0.00 70 1017.6
20260905140837 75 147 6.0 12.0 0.00 0.00 0.00 71 1017.9
20260905140332 75 146 8.0 8.0 0.00 0.00 0.00 71 1017.8
20260905135830 75 137 5.0 10.0 0.00 0.00 0.00 72 1017.8
20260905135326 74 141 5.0 9.0 0.00 0.00 0.00 73 1017.7
20260905134821 74 131 8.0 12.0 0.00 0.00 0.00 73 1017.7
20260905134314 74 148 6.0 11.0 0.00 0.00 0.00 74 1017.5
20260905133809 73 141 7.0 9.0 0.00 0.00 0.00 74 1017.1
20260905133305 73 145 6.0 10.0 0.00 0.00 0.00 75 1017.0
20260905132803 72 136 9.0 13.0 0.00 0.00 0.00 75 1017.3
20260905132259 72 153 6.0 13.0 0.00 0.00 0.00 76 1017.0
20260905131754 72 137 8.0 15.0 0.00 0.00 0.00 77 1017.1
20260905131249 72 130 9.0 12.0 0.00 0.00 0.00 77 1017.0
20260905130743 72 125 9.0 11.0 0.00 0.00 0.00 77 1017.0
20260905130237 71 137 8.0 13.0 0.00 0.00 0.00 77 1016.8
20260905125733 71 140 9.0 12.0 0.00 0.00 0.00 78 1016.6
20260905125228 71 144 9.0 13.0 0.00 0.00 0.00 78 1016.9
20260905124725 71 129 9.0 13.0 0.00 0.00 0.00 78 1016.8
20260905124220 71 133 5.0 8.0 0.00 0.00 0.00 80 1017.1
20260905123714 71 135 6.0 11.0 0.00 0.00 0.00 78 1016.7
20260905123212 72 146 8.0 13.0 0.00 0.00 0.00 77 1016.3
20260905122711 71 163 7.0 12.0 0.00 0.00 0.00 78 1016.7
20260905122205 72 152 9.0 12.0 0.00 0.00 0.00 77 1016.3
20260905121700 72 156 10.0 12.0 0.00 0.00 0.00 77 1016.6
20260905121156 71 148 7.0 10.0 0.00 0.00 0.00 78 1016.3
20260905120655 71 128 7.0 11.0 0.00 0.00 0.00 78 1016.3
20260905120149 72 141 5.0 8.0 0.00 0.00 0.00 77 1016.6
20260905115644 72 134 4.0 11.0 0.00 0.00 0.00 76 1016.5
20260905115139 72 145 8.0 9.0 0.00 0.00 0.00 76 1016.5
20260905114639 72 143 5.0 9.0 0.00 0.00 0.00 76 1016.5
20260905114137 72 131 6.0 9.0 0.00 0.00 0.00 77 1016.5
20260905113632 71 134 5.0 10.0 0.00 0.00 0.00 78 1016.6
20260905113127 71 136 6.0 7.0 0.00 0.00 0.00 80 1016.6
20260905112621 69 89 6.0 10.0 0.00 0.00 0.00 82 1016.6
20260905112117 69 105 8.0 10.0 0.00 0.00 0.00 82 1016.5
20260905111612 69 98 4.0 4.0 0.00 0.00 0.00 83 1016.5
20260905111111 69 35 0.0 0.0 0.00 0.00 0.00 84 1016.2
20260905110610 69 98 0.0 0.0 0.00 0.00 0.00 83 1016.2
20260905110106 68 80 0.0 1.0 0.00 0.00 0.00 83 1016.1
20260905105601 69 164 0.0 0.0 0.00 0.00 0.00 83 1016.1
20260905105100 69 155 0.0 3.0 0.00 0.00 0.00 83 1015.9
20260905104556 69 150 3.0 4.0 0.00 0.00 0.00 83 1015.9
20260905104055 69 166 3.0 4.0 0.00 0.00 0.00 82 1015.7
20260905103550 70 177 2.0 4.0 0.00 0.00 0.00 82 1015.8
20260905103047 70 181 4.0 4.0 0.00 0.00 0.00 82 1015.9
20260905102542 70 165 4.0 5.0 0.00 0.00 0.00 82 1015.8
20260905102039 69 157 4.0 4.0 0.00 0.00 0.00 82 1015.9
20260905101537 70 187 3.0 4.0 0.00 0.00 0.00 81 1016.0
20260905101035 70 182 3.0 4.0 0.00 0.00 0.00 81 1016.0
20260905100532 70 180 2.0 4.0 0.00 0.00 0.00 80 1016.0
20260905100032 70 160 4.0 4.0 0.00 0.00 0.00 79 1016.0
20260905095526 71 184 3.0 6.0 0.00 0.00 0.00 79 1015.9
20260905095021 70 175 4.0 4.0 0.00 0.00 0.00 79 1016.0
20260905094516 70 165 5.0 6.0 0.00 0.00 0.00 79 1016.1
20260905094015 70 171 3.0 5.0 0.00 0.00 0.00 80 1016.1
20260905093510 69 173 3.0 4.0 0.00 0.00 0.00 81 1016.3
20260905093006 69 186 2.0 3.0 0.00 0.00 0.00 81 1016.3
20260905092501 69 161 2.0 4.0 0.00 0.00 0.00 81 1016.3
20260905091951 69 162 2.0 3.0 0.00 0.00 0.00 80 1016.2
20260905091451 70 161 3.0 4.0 0.00 0.00 0.00 80 1016.2
20260905090950 70 180 3.0 4.0 0.00 0.00 0.00 80 1016.5
20260905090445 70 163 4.0 5.0 0.00 0.00 0.00 79 1016.1
20260905085944 70 164 3.0 4.0 0.00 0.00 0.00 78 1016.3
20260905085444 71 162 4.0 4.0 0.00 0.00 0.00 77 1016.2
20260905084940 72 165 4.0 5.0 0.00 0.00 0.00 75 1016.3
20260905084439 72 181 4.0 6.0 0.00 0.00 0.00 74 1016.2
20260905083934 72 178 4.0 6.0 0.00 0.00 0.00 74 1016.5
20260905083430 73 165 4.0 8.0 0.00 0.00 0.00 73 1016.2
20260905082925 73 166 5.0 7.0 0.00 0.00 0.00 72 1016.2
20260905082421 73 180 6.0 9.0 0.00 0.00 0.00 71 1016.1
20260905081916 74 184 7.0 8.0 0.00 0.00 0.00 70 1016.2
20260905081411 74 174 5.0 10.0 0.00 0.00 0.00 70 1016.3
20260905080910 74 172 6.0 10.0 0.00 0.00 0.00 69 1016.3
20260905080409 74 177 6.0 10.0 0.00 0.00 0.00 69 1016.1
20260905075909 75 180 6.0 11.0 0.00 0.00 0.00 68 1016.2
20260905075404 74 163 8.0 10.0 0.00 0.00 0.00 69 1016.2
20260905074903 74 177 7.0 10.0 0.00 0.00 0.00 69 1016.2
20260905074359 74 183 5.0 8.0 0.00 0.00 0.00 69 1016.2
20260905073854 75 191 7.0 10.0 0.00 0.00 0.00 69 1016.2
20260905073349 75 181 6.0 11.0 0.00 0.00 0.00 68 1016.3
20260905072844 75 175 6.0 9.0 0.00 0.00 0.00 69 1016.5
20260905072339 74 195 5.0 8.0 0.00 0.00 0.00 70 1016.6
20260905071835 74 194 6.0 7.0 0.00 0.00 0.00 71 1016.5
20260905071332 74 175 6.0 7.0 0.00 0.00 0.00 70 1016.7
20260905070831 74 179 6.0 8.0 0.00 0.00 0.00 70 1016.7
20260905070328 74 191 6.0 6.0 0.00 0.00 0.00 70 1016.7
20260905065826 75 195 8.0 8.0 0.00 0.00 0.00 69 1016.7
20260905065325 75 209 5.0 6.0 0.00 0.00 0.00 69 1016.9
20260905064820 74 187 4.0 6.0 0.00 0.00 0.00 70 1016.7
20260905064317 75 205 7.0 7.0 0.00 0.00 0.00 68 1016.8
20260905063815 75 197 7.0 8.0 0.00 0.00 0.00 68 1016.7
20260905063311 75 188 6.0 8.0 0.00 0.00 0.00 67 1016.8
20260905062807 75 189 4.0 6.0 0.00 0.00 0.00 67 1016.8
20260905062307 76 188 6.0 7.0 0.00 0.00 0.00 66 1016.7
20260905061802 77 178 7.0 9.0 0.00 0.00 0.00 64 1016.8
20260905061256 77 202 5.0 11.0 0.00 0.00 0.00 63 1016.9
20260905060756 77 206 6.0 8.0 0.00 0.00 0.00 64 1016.8
20260905060253 78 194 7.0 10.0 0.00 0.00 0.00 63 1016.7
20260905055751 78 188 6.0 11.0 0.00 0.00 0.00 63 1016.7
20260905055246 78 182 5.0 9.0 0.00 0.00 0.00 62 1016.6
20260905054741 79 182 7.0 12.0 0.00 0.00 0.00 60 1016.3
20260905054238 79 180 4.0 12.0 0.00 0.00 0.00 61 1016.5
20260905053737 78 167 8.0 9.0 0.00 0.00 0.00 61 1016.6
20260905053233 78 167 10.0 10.0 0.00 0.00 0.00 61 1016.3
20260905052732 79 180 4.0 9.0 0.00 0.00 0.00 60 1016.6
20260905052227 79 167 4.0 6.0 0.00 0.00 0.00 60 1016.6
20260905051726 79 184 4.0 6.0 0.00 0.00 0.00 59 1016.5
20260905051223 79 218 4.0 4.0 0.00 0.00 0.00 60 1016.6
20260905050720 79 254 2.0 2.0 0.00 0.00 0.00 60 1016.8
20260905050216 79 321 3.0 3.0 0.00 0.00 0.00 60 1016.6
20260905045715 79 333 1.0 3.0 0.00 0.00 0.00 61 1016.8
20260905045211 79 299 3.0 3.0 0.00 0.00 0.00 60 1016.6
20260905044706 79 346 2.0 3.0 0.00 0.00 0.00 60 1016.5
20260905044202 80 89 0.0 3.0 0.00 0.00 0.00 58 1016.5
20260905043700 80 94 0.0 5.0 0.00 0.00 0.00 57 1016.3
20260905043155 81 136 3.0 6.0 0.00 0.00 0.00 57 1016.5
20260905042654 80 155 6.0 7.0 0.00 0.00 0.00 57 1016.5
20260905042148 80 156 5.0 10.0 0.00 0.00 0.00 58 1016.1
20260905041644 80 162 6.0 8.0 0.00 0.00 0.00 58 1016.5
20260905041139 80 163 7.0 9.0 0.00 0.00 0.00 58 1016.2
20260905040634 81 173 6.0 10.0 0.00 0.00 0.00 58 1016.3
20260905040133 81 166 7.0 9.0 0.00 0.00 0.00 56 1016.2